Theta_e
350 349 349 350 350 349 349 350 350 350 350 350 350 352 352 352 351 350 350 349 348 348 349 349 349 349 349 349 349 349 348 345 343 341 339 338 339 343 347 347 345 345 345 345 343 341 341 342 344 345 345 345 345 344 344 344 343 343 343 344 344 344 344 345 344 343 344 343 343 344 344 345 345 344 344 345 345 345 346 345 345 345 344 342 341
345 345 346 348 350 350 350 351 350 350 350 349 349 350 351 351 351 351 351 351 349 348 348 349 349 350 350 349 350 350 349 348 347 345 344 341 339 340 345 347 347 346 346 346 345 342 340 342 342 343 345 346 346 345 345 345 344 343 343 344 344 344 344 345 345 344 344 344 343 343 344 345 344 344 344 344 343 344 345 345 345 344 343 342 340
342 342 345 347 350 350 351 352 351 350 349 349 349 349 350 351 351 351 351 351 350 349 348 348 348 349 349 349 349 349 350 349 349 348 347 346 343 341 342 344 345 346 346 345 345 343 340 340 340 341 343 346 346 346 346 346 345 344 344 344 344 343 344 345 346 346 345 344 344 343 343 344 343 343 344 344 343 344 344 345 346 346 344 343 342
344 345 346 348 350 350 351 351 352 351 350 349 348 348 349 350 350 351 351 351 351 350 349 349 348 349 349 348 348 349 349 349 349 349 348 348 347 344 342 342 343 344 346 346 345 344 342 340 339 340 341 344 347 346 346 347 346 345 345 344 343 343 344 345 346 346 345 345 345 345 344 343 342 342 344 344 344 343 344 345 346 346 344 343 342
346 347 347 348 350 350 351 351 351 351 350 349 349 348 349 350 349 349 349 350 350 350 350 350 350 349 349 348 348 348 348 349 349 349 349 349 348 347 345 344 342 342 344 345 346 346 345 342 341 341 341 343 346 347 347 347 347 346 345 344 343 343 344 345 345 345 345 345 345 345 345 346 344 343 345 345 344 344 345 346 345 345 344 344 342
346 346 345 346 347 347 348 348 348 349 349 349 349 349 349 349 349 349 349 349 350 349 350 350 350 350 349 349 348 347 347 348 349 349 349 349 349 349 348 347 345 343 342 343 345 346 347 344 343 342 342 342 343 344 346 347 347 347 346 345 344 344 345 345 345 345 344 344 344 344 346 347 346 346 345 345 345 345 345 345 344 344 343 342 340
346 346 345 345 346 345 346 346 346 347 348 349 349 349 350 350 350 350 350 350 350 349 350 349 349 349 349 349 349 347 347 347 348 349 349 349 349 349 349 348 348 346 344 343 343 345 347 346 344 343 342 342 340 340 342 346 347 347 346 346 346 345 346 345 345 344 344 344 344 344 345 347 348 347 346 346 345 345 344 343 343 341 340 339 339
347 347 347 346 347 347 347 347 347 347 349 350 349 350 350 351 350 349 348 348 348 348 348 348 348 348 348 349 350 349 348 348 349 349 348 349 349 349 349 349 348 348 347 346 343 344 345 345 344 343 342 342 341 341 340 343 346 347 347 347 347 348 348 347 346 345 344 345 345 344 345 346 346 346 346 346 346 345 345 344 342 339 337 339 340
348 348 348 347 348 349 350 349 348 347 349 350 350 350 350 350 350 349 348 347 347 346 346 346 347 347 348 348 348 349 350 350 350 350 349 348 348 349 348 348 349 349 348 347 346 345 343 342 342 343 343 344 343 343 342 342 343 345 346 347 348 349 349 349 348 347 345 345 344 345 346 345 345 345 346 347 347 346 346 344 343 341 340 342 342
350 351 350 349 349 350 351 350 349 349 348 350 350 350 350 349 349 350 349 348 346 346 346 346 346 345 345 346 346 347 347 348 350 350 350 350 349 349 349 348 348 349 348 349 348 347 345 342 341 341 344 344 343 344 344 345 345 345 345 345 347 349 350 349 348 348 347 346 345 345 346 345 346 347 347 347 347 346 345 345 345 343 342 343 343
351 353 352 352 351 351 351 350 350 349 349 349 349 350 350 349 349 349 349 348 347 347 346 345 345 344 344 344 345 345 345 345 346 348 349 350 350 350 350 349 348 348 348 348 348 348 348 345 342 340 341 343 343 343 345 347 348 347 345 346 347 349 350 349 349 348 347 347 346 346 346 346 346 347 347 347 347 347 346 346 345 342 341 343 345
350 352 353 353 352 352 351 351 351 350 349 348 348 349 349 349 348 348 348 348 346 346 345 345 345 345 345 345 345 345 346 345 346 346 346 347 348 349 349 349 348 347 347 347 347 348 349 348 345 342 341 341 344 344 345 347 348 347 346 346 346 347 348 348 348 348 347 347 347 346 346 346 346 347 347 347 346 347 346 346 344 341 340 344 345
349 351 352 352 351 351 351 351 352 350 349 347 348 349 349 348 348 347 347 347 346 345 345 345 346 346 346 347 346 346 346 346 346 347 347 347 347 348 348 348 348 347 347 347 347 348 349 349 347 346 344 344 345 346 346 346 347 347 346 346 346 347 346 346 347 347 347 348 347 347 346 346 347 347 347 347 346 346 346 346 344 342 342 343 342
351 352 351 349 350 350 350 350 349 348 347 347 348 349 348 348 347 347 346 346 346 346 346 346 347 347 347 347 346 346 345 345 345 346 346 347 348 348 348 349 348 347 347 347 347 348 349 349 349 348 346 346 346 347 347 346 347 348 348 348 348 348 347 347 347 347 346 347 347 346 346 346 347 347 347 347 347 347 348 347 345 345 345 344 342
351 350 349 347 346 346 346 347 347 348 348 349 349 348 348 348 347 347 347 346 346 346 346 346 347 347 346 346 346 346 345 344 344 344 345 346 348 349 349 348 348 347 347 348 348 347 348 349 350 349 347 347 347 347 346 346 348 350 349 349 349 348 348 348 348 347 347 347 346 347 346 347 347 347 347 347 347 348 347 347 347 347 346 344 341
350 348 346 343 342 343 345 347 348 349 349 349 348 348 347 348 347 347 347 345 345 345 345 345 346 346 346 346 346 345 344 343 343 344 344 347 349 350 349 348 348 348 347 347 348 348 347 348 349 349 348 348 347 347 346 346 348 349 349 349 349 348 348 348 348 348 348 347 348 348 348 348 347 347 347 347 347 347 348 348 347 346 345 343 342
349 347 345 341 341 343 345 347 349 350 350 349 349 348 348 347 347 347 346 345 344 345 344 345 346 346 346 346 345 344 344 344 346 346 346 348 350 350 349 348 348 348 347 347 347 347 347 347 348 348 348 348 347 346 346 347 347 347 348 348 348 348 347 347 348 348 348 348 348 348 347 347 346 346 346 345 344 344 345 345 344 344 343 343 343
346 345 343 341 341 343 345 348 349 351 350 349 349 348 348 349 348 347 346 346 346 346 346 345 345 345 346 345 344 344 345 347 348 347 348 349 349 350 349 348 348 348 347 346 347 347 347 347 348 348 347 347 347 346 346 346 346 346 346 347 347 347 347 347 347 347 347 346 346 345 345 344 345 344 343 341 340 342 343 343 343 343 344 344 345
346 344 344 343 344 345 347 348 349 349 349 349 349 348 348 348 348 347 346 346 346 346 345 345 345 345 345 345 344 344 345 346 347 347 348 348 348 348 349 348 348 348 347 347 347 347 347 347 348 347 346 346 346 346 346 345 345 345 345 346 346 345 345 345 345 345 345 344 344 344 344 344 344 343 342 340 341 342 343 342 344 345 345 346 346
346 347 349 350 350 350 350 349 347 346 347 347 348 348 348 349 348 347 347 346 345 345 345 346 345 345 345 345 344 343 343 345 347 348 348 347 348 348 348 349 348 348 348 347 346 346 347 347 347 347 346 345 345 346 346 345 345 346 346 345 345 344 345 344 344 344 344 344 344 344 345 345 344 344 343 343 342 342 342 342 343 344 345 346 345
344 348 351 351 351 351 352 350 347 344 344 345 346 347 347 348 347 347 346 346 345 345 345 345 345 344 344 344 344 344 344 345 346 348 348 347 348 348 349 349 348 348 348 348 347 348 348 347 346 346 346 345 346 346 345 346 346 346 346 345 345 345 345 345 345 345 345 345 345 346 346 346 346 345 344 343 343 342 342 342 342 343 344 344 344
344 345 347 347 347 349 350 350 348 344 342 343 344 345 347 347 347 347 346 345 345 345 345 345 344 343 343 344 344 343 344 345 346 347 347 347 347 347 348 349 348 348 348 348 347 347 348 347 346 345 345 345 346 346 345 345 345 345 345 345 345 346 346 345 346 346 346 347 346 346 346 346 345 345 344 343 343 343 342 342 342 343 343 343 343
348 347 345 345 345 346 347 347 347 345 344 343 344 345 347 347 347 347 346 345 345 344 345 345 344 342 342 343 344 344 345 345 345 346 346 347 347 347 347 348 347 348 349 348 348 348 347 346 345 345 346 346 346 346 345 344 344 343 343 344 344 345 345 345 345 346 346 345 344 344 344 345 344 344 343 342 342 342 343 343 343 343 343 343 344
348 348 347 346 347 347 347 345 343 342 343 345 346 347 347 347 347 347 345 345 345 345 344 343 342 342 342 343 343 344 344 345 346 346 345 346 347 347 347 347 347 347 347 347 347 347 346 346 345 345 346 345 344 343 342 343 343 343 343 343 343 344 344 343 343 343 343 343 343 342 343 343 343 343 342 342 343 344 344 343 343 343 344 344 344
348 347 348 348 348 347 346 345 344 343 343 344 346 346 345 345 345 345 345 345 345 345 345 343 342 342 342 342 343 343 344 345 346 346 345 346 347 347 346 347 347 347 346 346 346 346 346 346 345 345 344 343 342 342 342 344 344 344 343 343 342 342 342 342 342 342 342 342 342 342 342 342 342 342 343 344 345 344 344 344 344 344 344 344 344
349 348 349 350 348 344 343 346 348 348 346 345 346 345 344 342 342 343 345 345 345 345 344 343 343 344 343 342 343 344 343 344 345 346 345 346 347 346 346 347 347 346 346 346 345 345 345 345 345 345 344 344 343 343 343 344 343 342 341 341 340 340 340 341 342 342 342 342 342 342 342 342 343 344 344 345 345 344 344 344 343 344 344 344 343
351 350 351 352 350 347 345 346 346 345 344 343 343 344 343 342 342 341 342 342 344 345 346 345 344 344 344 343 343 344 344 343 344 345 345 345 346 346 347 347 347 346 346 345 345 345 345 345 345 345 345 345 344 343 343 342 341 340 341 340 340 340 341 342 342 342 342 342 343 343 343 344 344 344 344 344 344 344 344 344 344 344 344 343 343
352 352 352 351 350 347 346 344 341 339 336 334 336 338 338 338 338 338 338 339 341 343 346 347 345 344 345 344 344 344 344 343 343 344 344 345 345 345 346 347 347 347 347 347 346 346 346 346 345 345 344 344 344 343 342 341 341 341 342 342 342 343 343 342 342 342 342 343 343 343 344 344 344 344 343 343 343 344 344 344 344 343 342 342 341
350 347 346 347 348 348 347 344 342 340 337 333 333 336 336 335 334 332 332 335 337 341 345 346 346 345 345 345 344 344 344 344 343 343 343 344 345 345 345 345 345 346 345 346 346 346 346 345 345 344 343 344 344 343 342 342 343 343 343 344 343 343 343 343 343 343 343 343 343 343 343 343 343 343 343 343 343 343 342 341 341 341 340 339 338
348 343 340 341 342 343 344 342 340 341 340 337 336 337 338 338 336 334 333 332 334 338 343 345 345 345 343 343 344 344 344 344 344 343 343 343 343 344 344 345 345 345 345 345 345 345 345 346 345 345 345 344 344 343 343 343 344 344 344 344 344 343 343 343 343 343 343 343 343 343 342 343 343 343 343 343 342 340 339 338 338 339 338 337 335
346 341 337 336 334 335 336 338 340 340 339 336 334 336 337 338 338 339 339 337 335 337 340 341 343 344 342 340 340 341 342 344 344 344 344 343 343 342 343 344 344 344 344 345 345 345 345 346 345 346 345 345 345 344 344 344 344 344 344 344 344 343 343 343 343 343 343 343 343 343 343 343 342 343 342 341 340 339 337 336 336 337 337 335 334
341 338 336 337 337 335 336 339 341 341 339 335 333 333 335 336 336 337 339 338 336 337 339 339 341 343 343 341 338 337 339 342 343 343 343 343 344 343 342 343 343 344 344 344 344 345 345 345 345 345 345 345 345 344 344 344 343 343 343 343 343 343 343 343 343 343 343 343 343 343 343 342 342 343 341 340 339 338 337 335 334 335 336 334 334
338 335 335 337 338 338 337 337 338 339 340 338 336 334 334 335 336 336 337 338 337 336 338 339 339 340 340 340 338 336 337 339 342 343 343 343 343 343 343 342 343 344 344 345 344 344 344 344 344 344 344 344 344 344 343 343 343 343 343 343 343 343 343 343 343 344 343 343 343 343 342 342 342 341 340 339 338 337 337 335 334 334 334 333 333
335 334 333 333 336 338 337 335 334 335 336 337 337 337 337 338 338 336 337 338 338 336 337 339 340 340 340 339 337 336 336 337 340 342 342 341 341 342 342 343 343 343 343 344 343 343 344 343 343 343 343 343 343 343 343 343 343 342 343 342 343 343 343 344 344 344 343 343 343 342 341 340 340 339 338 337 336 336 335 335 333 333 333 332 331
333 334 333 332 333 336 336 337 337 336 336 337 339 340 341 342 339 336 337 339 340 338 337 340 342 344 344 342 341 338 336 336 337 339 339 339 340 341 342 342 342 342 341 341 342 342 343 343 343 343 343 343 343 343 343 343 343 343 343 343 344 343 343 344 344 343 342 342 342 340 339 339 338 338 337 337 337 336 335 334 333 332 331 328 328
329 332 333 333 334 335 336 337 339 338 337 338 340 342 344 343 340 337 338 340 341 340 340 341 342 344 344 344 343 341 338 336 335 336 337 336 337 338 339 340 340 340 339 338 339 340 341 342 343 343 343 343 342 343 343 343 343 343 343 343 343 343 342 342 342 342 342 342 341 340 339 339 338 338 337 338 338 337 335 333 331 328 325 324 325
329 331 333 332 333 335 337 338 338 338 338 337 338 340 342 342 340 339 340 341 342 342 343 343 343 343 343 343 343 342 339 336 335 335 335 335 336 336 336 336 337 337 337 336 337 337 338 340 341 342 343 342 343 343 342 342 342 341 342 342 342 342 341 340 340 340 340 340 340 340 339 339 339 338 338 337 336 334 331 329 326 324 324 325 325
329 332 334 333 332 334 336 336 335 336 337 338 338 337 337 338 340 341 342 342 342 342 344 345 344 343 343 343 343 343 342 339 338 336 334 335 335 335 334 334 334 335 335 335 336 336 336 337 338 340 341 342 343 343 342 340 340 340 340 340 341 340 340 339 339 339 339 339 340 339 339 339 338 336 335 333 331 330 328 326 324 324 326 326 326
328 329 333 335 335 335 336 336 336 337 338 339 340 341 340 340 341 343 344 344 343 343 345 346 346 345 344 343 344 343 342 342 341 339 337 336 335 334 335 335 335 335 335 335 335 335 335 335 336 337 339 340 342 342 341 340 340 339 339 339 339 339 339 339 339 339 339 339 338 338 338 337 334 331 329 328 327 326 325 324 323 325 327 327 327
326 329 333 336 336 336 336 337 337 338 339 339 341 342 343 343 344 344 344 344 345 345 345 346 347 346 345 344 344 344 343 343 342 342 341 340 338 336 335 335 335 336 336 336 336 335 335 334 335 335 336 338 340 341 340 340 339 339 339 339 339 339 339 339 338 338 338 338 337 337 335 331 327 325 324 324 323 324 323 323 325 327 328 328 328
329 332 335 336 336 336 336 337 337 337 337 338 340 342 344 344 345 345 345 345 345 345 346 346 345 345 345 345 345 344 343 343 343 343 342 342 341 340 339 337 337 337 337 337 336 337 336 335 335 335 335 336 338 340 340 339 339 339 339 339 338 339 338 337 337 337 337 336 336 334 330 326 324 323 322 322 324 325 325 325 326 328 328 329 329
330 332 334 335 335 336 336 336 336 335 335 336 338 340 342 343 344 345 345 344 343 342 342 342 342 343 344 345 345 344 344 344 344 343 343 342 342 342 341 340 338 338 337 337 337 337 336 336 335 335 336 336 337 339 339 339 339 338 338 338 338 337 336 336 335 334 334 334 334 331 326 325 325 324 324 326 329 330 329 328 328 328 328 329 329
330 331 332 333 335 335 336 335 334 334 334 334 335 336 337 339 341 342 344 344 343 342 340 339 338 340 343 344 344 345 344 344 344 343 343 343 342 342 341 340 339 339 338 338 338 337 337 336 335 335 336 337 337 338 338 338 338 338 337 337 336 335 335 334 333 331 330 329 329 327 326 326 327 326 325 328 331 331 330 329 328 328 328 329 329
332 332 332 332 333 333 334 333 333 333 333 332 332 332 332 334 336 339 341 342 342 341 341 340 339 339 341 342 343 344 344 344 343 343 343 343 342 341 340 339 339 338 338 338 339 338 337 337 336 336 335 336 338 338 338 337 337 337 336 336 335 334 334 334 332 330 326 323 323 325 328 329 329 328 327 328 329 329 328 328 328 328 328 329 328
333 333 332 333 333 333 333 333 332 332 332 331 331 331 331 332 334 337 340 342 342 342 342 342 341 340 339 341 343 343 344 343 343 342 342 342 342 341 340 339 338 337 337 338 339 338 338 337 337 336 335 336 337 338 337 336 335 335 335 335 334 334 334 333 331 328 325 323 324 327 331 330 330 330 329 327 326 326 326 326 327 329 329 328 328
332 333 332 332 332 332 332 332 331 330 330 329 330 330 331 332 333 334 337 340 341 341 341 340 340 339 338 338 341 342 343 342 342 342 341 341 340 341 339 339 338 336 336 336 338 338 338 337 337 337 336 336 337 338 337 336 335 335 335 335 335 335 335 332 329 327 327 327 328 330 330 329 329 330 329 327 325 325 325 326 328 328 328 327 327
331 331 332 332 331 331 331 331 331 329 329 330 330 329 330 331 331 332 334 337 339 340 339 339 338 338 337 336 338 340 342 342 341 341 340 339 339 338 338 338 337 336 335 336 337 338 338 338 338 337 336 336 337 338 337 336 335 335 335 335 335 334 333 331 329 329 330 331 331 331 330 328 327 328 329 328 326 326 326 327 327 327 327 326 326
330 330 331 330 330 329 330 331 332 331 330 330 330 330 331 333 335 334 335 337 339 340 339 339 338 337 337 337 339 340 340 340 340 340 339 337 337 337 337 336 337 337 336 336 337 338 339 338 338 338 337 336 337 338 337 336 335 336 335 334 333 331 331 331 331 331 331 331 331 331 330 327 326 326 328 328 326 327 328 328 328 328 328 326 324
331 331 330 329 329 328 329 330 331 330 329 330 332 333 334 336 337 338 338 338 339 339 339 339 338 338 339 340 340 340 339 339 339 339 338 336 336 336 336 336 337 337 337 337 337 338 339 339 339 339 338 337 337 338 337 336 336 336 334 332 330 329 330 331 331 331 331 330 331 331 330 327 326 326 327 327 327 328 328 328 327 326 326 325 324
330 330 329 328 328 329 330 331 331 330 329 330 332 333 334 335 337 338 338 338 338 338 337 338 338 337 337 337 338 339 338 338 338 338 337 337 336 336 336 336 337 337 337 337 337 338 339 339 339 339 339 339 339 338 338 337 337 336 334 331 330 330 330 331 330 330 330 330 330 330 329 327 327 327 328 328 328 328 328 328 327 326 324 324 324
330 329 330 330 330 331 331 331 331 330 330 330 331 331 331 332 335 337 338 338 338 337 336 336 336 336 336 336 337 337 338 338 338 338 337 337 337 337 336 337 337 338 337 337 337 337 339 339 339 339 339 340 339 339 338 337 337 336 334 332 331 330 331 331 330 329 329 330 329 328 328 327 327 328 328 328 328 328 328 328 327 326 325 325 324
Wind_Speed
16 16 17 18 18 19 20 21 22 24 25 26 28 27 27 26 24 22 22 23 25 27 27 26 25 25 25 25 24 24 24 25 27 28 29 28 28 27 26 26 27 26 25 25 26 27 27 26 25 23 21 20 18 17 17 16 16 15 14 13 12 13 12 12 12 10 8 8 8 9 9 10 10 9 7 7 7 6 5 5 6 6 6 6 7
15 16 17 19 19 19 20 20 22 24 25 26 27 28 27 27 27 25 24 23 24 25 27 27 27 28 29 29 28 28 27 26 26 28 29 29 29 29 28 28 29 28 27 27 26 28 29 28 27 25 23 22 20 19 19 18 17 17 17 16 14 14 13 12 13 12 10 9 9 9 9 9 10 9 8 8 7 7 7 6 7 7 7 9 10
14 16 17 18 19 19 20 21 22 23 25 25 26 27 27 27 27 27 26 25 25 25 26 26 27 28 30 30 30 30 30 30 29 28 29 30 30 30 30 30 30 30 30 29 27 28 30 30 30 28 26 24 22 22 22 20 19 19 19 18 17 16 15 14 14 13 12 10 9 11 12 12 11 10 9 9 8 9 9 8 8 9 10 12 14
14 14 15 16 17 18 20 21 22 22 23 24 25 26 26 26 27 27 26 26 26 26 26 27 27 28 30 31 31 30 30 30 32 32 31 30 31 32 32 32 32 32 32 31 29 29 30 31 31 30 29 27 25 24 24 23 21 20 20 19 19 18 17 16 15 15 14 13 12 11 12 13 12 11 10 10 10 11 11 10 11 12 13 14 16
13 13 13 14 15 17 18 20 22 22 22 23 24 24 25 26 26 26 26 26 27 27 27 27 28 29 30 32 33 33 32 30 31 34 35 33 32 32 33 34 34 34 33 33 32 31 30 31 31 30 30 30 28 26 25 25 24 22 21 20 20 19 17 17 17 17 18 18 16 14 13 13 13 12 12 12 12 12 13 13 13 14 15 16 18
12 12 13 14 15 16 17 19 21 22 22 22 23 23 24 24 25 25 26 26 26 26 27 27 28 29 30 31 33 35 35 33 32 35 37 37 36 35 35 35 35 36 35 35 35 34 32 31 31 31 31 32 31 29 27 26 25 24 23 22 21 19 18 17 17 19 20 21 20 17 15 15 15 14 14 15 15 15 14 14 15 17 18 19 19
11 12 12 14 15 15 15 17 19 20 21 22 22 23 23 23 24 25 25 25 25 26 27 27 28 29 30 31 33 36 37 36 35 36 38 38 38 38 38 37 37 38 37 36 37 36 35 33 32 32 33 33 33 31 29 27 26 24 24 23 21 19 18 18 18 19 20 21 21 20 18 17 17 17 16 17 18 18 17 17 18 18 17 17 17
12 12 13 14 15 14 14 15 17 18 19 19 20 21 21 22 23 24 24 24 25 25 26 27 27 28 29 31 33 35 38 39 38 38 39 40 40 40 40 40 39 39 40 39 38 38 37 36 34 34 34 34 33 31 30 29 28 27 25 23 21 19 20 20 20 20 20 20 21 21 20 21 20 19 19 19 19 19 18 19 19 18 16 16 16
13 14 15 15 15 15 15 16 17 18 18 18 18 18 19 20 21 22 23 23 24 24 24 25 26 27 28 29 31 34 37 41 42 41 41 42 42 42 43 43 42 41 41 41 40 39 39 38 36 34 34 34 33 32 31 30 30 30 29 26 23 21 21 22 22 21 21 22 22 21 21 23 23 21 20 20 20 20 20 20 19 19 18 19 19
16 16 17 17 16 16 16 17 17 18 18 19 19 19 18 19 20 21 22 23 23 23 24 25 26 27 28 29 31 32 35 39 42 43 44 44 44 44 44 45 45 44 42 41 41 40 39 38 37 35 34 34 34 34 33 32 30 31 31 29 27 24 24 24 24 23 22 23 23 22 22 23 23 22 21 22 22 22 22 21 21 21 22 23 23
18 18 18 17 17 17 17 18 18 18 18 19 20 19 19 19 19 21 23 23 23 24 25 27 28 28 29 30 31 33 35 37 40 41 43 45 46 46 46 46 47 47 45 43 42 41 40 39 38 37 36 35 35 35 36 34 32 30 30 30 30 28 27 27 26 24 23 24 23 23 23 24 24 23 24 24 24 24 24 23 24 24 23 24 24
17 17 18 18 18 18 18 18 19 20 20 20 20 20 19 20 21 22 23 24 24 26 27 28 28 29 29 30 31 33 35 36 38 39 41 42 44 46 48 48 49 49 48 46 44 43 42 41 39 38 37 35 34 34 35 36 35 32 31 30 30 30 30 29 29 27 25 25 24 24 24 25 25 26 26 26 26 26 26 26 26 25 24 25 26
15 16 17 18 18 18 18 20 21 22 22 21 20 20 20 21 22 22 24 24 25 26 27 27 28 28 29 30 32 33 35 36 37 39 41 42 43 44 45 46 48 49 49 48 47 44 43 42 40 38 36 35 33 32 33 34 34 32 30 29 29 29 28 28 29 29 27 25 26 27 27 26 27 27 28 28 28 28 27 28 27 26 26 28 30
15 17 18 18 18 19 20 21 22 22 21 20 20 21 21 21 22 22 23 23 24 25 25 26 26 27 29 30 32 34 34 35 36 38 40 42 44 44 43 43 46 50 50 49 48 46 43 42 42 39 36 35 34 32 31 32 30 28 28 29 29 29 27 26 27 28 28 27 28 28 27 27 27 28 27 28 28 29 28 29 28 28 30 32 33
15 16 17 18 18 19 20 20 20 19 19 20 20 21 21 21 21 21 21 22 22 23 23 24 26 27 28 30 32 34 35 35 37 38 39 40 42 44 44 43 44 49 52 50 48 47 44 42 42 40 36 35 34 33 32 32 31 30 29 30 30 30 29 28 28 28 28 29 29 28 26 26 27 28 28 29 29 30 30 30 31 32 34 34 32
16 16 17 18 18 18 18 19 19 18 18 20 21 20 20 20 20 20 20 21 21 22 22 24 25 27 28 29 31 33 35 36 37 38 37 37 38 41 42 41 43 47 52 52 49 48 46 43 42 40 37 35 34 33 31 30 31 32 33 33 33 32 31 30 29 29 29 29 29 28 27 28 29 29 30 30 31 32 32 33 34 34 32 30 29
17 17 17 18 17 17 17 17 18 18 19 21 21 20 19 19 19 19 20 21 21 21 22 24 25 26 27 28 29 32 34 33 31 30 31 32 33 37 38 39 41 45 49 50 47 46 46 44 43 41 38 34 33 32 29 28 29 30 31 32 33 34 33 32 31 31 31 30 29 28 28 28 28 28 28 28 30 31 32 32 30 29 28 29 30
18 18 18 17 17 17 16 16 17 18 19 20 20 19 18 18 18 19 20 20 21 21 23 24 25 25 25 25 26 29 30 28 25 24 25 26 28 33 36 38 40 43 47 48 44 42 42 43 43 42 38 33 32 31 29 29 29 29 29 30 31 32 32 32 32 31 30 30 29 28 28 27 27 26 26 26 27 27 28 28 26 26 28 30 31
18 18 17 17 17 16 15 16 17 17 18 18 18 18 18 18 18 19 19 20 20 21 23 24 23 23 23 23 24 25 27 24 21 21 22 22 25 28 32 36 39 43 46 49 47 44 42 42 42 41 38 34 33 33 32 31 31 30 30 30 30 31 29 29 29 29 28 28 28 28 27 27 27 27 27 26 26 27 28 29 28 27 28 30 30
17 17 17 16 16 17 16 16 16 17 17 17 17 17 17 18 18 19 19 19 20 21 21 22 22 22 22 22 22 22 24 22 18 18 18 20 22 26 30 33 37 39 42 47 50 48 44 42 40 37 36 34 34 34 34 32 31 30 31 31 30 30 28 27 28 28 28 28 29 29 29 28 28 28 29 29 29 30 30 31 30 28 28 29 29
13 15 16 16 17 17 17 17 16 15 14 14 15 16 16 17 18 17 17 18 19 20 20 21 22 22 21 21 20 19 20 19 16 16 17 17 19 23 29 33 35 37 37 41 47 47 44 43 41 37 35 34 34 34 33 31 30 30 30 30 30 28 28 28 29 29 29 30 30 30 30 30 30 31 31 32 32 31 31 30 28 27 27 28 28
13 13 14 16 16 17 17 18 17 15 14 13 14 14 15 16 17 16 16 17 18 19 20 21 22 22 21 21 19 17 16 16 14 14 16 16 16 20 26 30 34 36 36 39 43 44 43 42 40 38 36 35 35 35 33 32 31 31 31 31 30 30 30 30 30 30 31 32 32 32 33 33 33 32 32 32 31 30 28 27 25 24 25 26 26
16 15 15 15 16 16 17 17 17 16 14 13 12 12 13 15 16 15 15 17 17 18 19 19 20 20 20 20 19 16 15 14 13 12 13 14 16 19 23 27 30 34 38 39 39 40 43 42 39 37 36 35 35 34 33 33 33 34 33 32 31 31 31 31 32 32 33 34 34 35 35 34 33 32 31 30 28 26 25 24 23 23 25 25 25
17 17 17 16 16 16 16 16 16 16 14 12 12 12 12 14 15 15 15 16 16 16 16 17 18 19 19 19 18 16 15 14 12 12 12 12 14 18 21 24 27 29 33 36 33 33 36 37 34 31 31 31 32 32 31 32 32 32 32 31 31 31 31 32 32 32 33 34 35 35 34 33 32 31 29 26 25 24 24 23 22 22 23 24 24
17 17 17 16 16 16 16 16 16 15 14 13 12 12 12 13 14 14 15 15 16 16 15 16 17 17 17 17 17 15 14 13 12 11 11 9 10 12 14 19 23 24 26 29 29 29 30 28 26 26 27 28 29 30 30 30 29 28 27 27 28 29 29 29 30 30 31 32 33 33 32 31 29 27 24 22 22 23 22 21 20 21 22 23 22
17 17 17 17 17 16 16 16 15 14 12 11 12 12 13 13 14 14 15 15 15 15 14 14 15 14 14 15 15 14 13 13 12 11 10 9 8 9 9 13 17 20 22 23 24 26 27 25 24 25 26 27 27 28 28 27 26 25 24 25 26 27 28 28 29 29 30 30 30 30 28 26 23 21 21 21 21 20 19 19 19 20 21 21 21
19 19 19 19 18 17 15 14 11 10 9 10 11 13 13 13 15 15 15 15 15 14 14 13 13 13 13 13 13 13 12 12 12 12 12 11 11 10 11 12 15 18 20 22 23 24 25 25 25 25 25 25 25 25 25 25 25 25 25 26 26 26 26 26 26 26 26 26 25 24 23 21 21 20 20 20 19 17 18 19 19 19 20 20 21
21 22 21 20 18 16 14 12 8 8 9 10 11 13 13 14 15 16 16 15 15 14 14 14 13 12 11 11 11 12 12 12 11 11 12 13 13 13 13 14 16 17 18 21 22 23 23 23 23 23 23 23 24 24 25 25 26 26 26 25 24 23 22 22 22 23 24 23 23 22 21 21 21 20 18 17 17 16 17 18 19 19 20 20 20
19 18 13 11 12 11 11 11 9 11 14 14 14 15 14 14 15 16 16 16 15 14 14 13 13 12 11 11 11 11 11 10 9 9 10 11 13 14 15 16 17 18 19 20 20 21 22 23 24 24 24 24 24 25 26 26 25 25 24 24 23 21 20 21 22 22 22 21 21 21 21 20 19 18 17 17 16 16 17 18 19 19 19 18 17
18 14 14 13 12 13 14 15 14 13 15 16 16 16 15 14 14 15 15 16 16 15 14 14 14 14 13 12 11 11 10 9 9 10 10 10 11 13 14 15 17 18 19 20 21 21 23 24 24 25 25 25 26 26 26 26 25 25 24 24 23 21 21 21 21 20 19 19 19 19 19 19 18 17 17 17 16 16 17 18 18 18 17 15 14
18 17 15 12 12 13 17 20 19 16 16 17 17 16 16 16 15 14 14 15 16 16 16 16 16 16 15 14 13 12 11 10 10 11 11 10 11 11 12 14 15 16 17 19 19 20 21 22 23 24 24 25 25 26 26 25 25 24 24 24 23 22 22 22 21 20 20 20 19 19 19 18 18 18 18 17 16 16 16 16 17 17 15 14 13
17 14 11 11 12 11 14 17 19 19 20 19 18 18 17 16 16 15 15 15 15 16 17 17 18 18 17 16 15 15 14 12 12 12 11 11 11 11 12 13 14 14 15 16 17 19 20 22 23 23 24 24 25 25 24 24 24 24 24 24 24 24 23 22 21 21 21 21 20 20 19 18 17 17 16 16 16 17 16 16 16 16 15 14 14
16 14 12 12 12 12 12 14 16 19 21 21 20 20 19 18 17 16 15 15 15 16 16 15 15 17 19 19 18 17 16 15 14 13 12 12 12 12 13 13 14 14 14 15 17 19 20 21 23 23 24 24 23 23 23 23 23 23 24 24 24 24 23 21 20 21 21 21 20 19 17 16 16 16 16 17 18 18 18 17 17 16 15 15 15
19 17 15 14 13 12 12 14 17 18 20 22 23 22 22 21 19 18 18 17 17 16 15 14 13 13 15 17 17 17 17 16 16 15 14 13 13 13 14 14 15 16 17 17 18 18 19 19 20 20 21 21 20 20 21 21 22 23 23 23 23 22 21 20 20 20 21 20 19 17 15 15 16 16 17 18 18 19 20 19 18 18 17 17 16
20 20 18 15 14 13 13 16 18 18 20 22 24 25 24 23 22 22 21 21 19 17 16 15 14 13 14 14 15 17 17 17 17 17 16 15 14 14 15 16 17 18 18 19 19 19 19 19 18 18 18 18 17 18 18 18 19 20 21 22 21 20 20 20 21 21 20 19 19 17 16 16 17 17 18 19 21 22 22 21 20 20 17 14 12
21 21 19 16 14 14 15 17 18 19 20 21 23 24 25 25 25 25 24 23 22 20 17 16 16 16 15 15 15 16 17 18 18 17 17 17 17 17 17 18 18 19 19 19 19 19 20 19 19 18 18 18 17 17 17 17 17 18 19 20 21 20 21 21 21 20 19 19 19 19 18 18 19 19 21 23 24 24 23 20 18 15 10 5 4
20 20 19 18 16 15 16 17 18 19 21 22 23 24 25 25 27 27 27 26 25 23 21 20 19 19 19 17 16 15 16 17 18 19 18 18 19 20 20 20 19 19 19 18 18 18 19 19 19 19 18 18 18 18 18 18 18 18 19 20 21 21 20 20 20 19 19 19 20 20 20 20 21 23 24 25 25 23 19 16 13 8 4 3 3
18 18 18 18 17 17 17 18 19 20 21 23 25 26 28 28 28 28 28 29 28 27 26 24 23 22 21 19 18 17 15 15 17 19 20 20 21 21 21 21 20 19 18 18 17 18 18 17 18 18 18 18 19 19 19 19 19 20 20 19 19 19 19 19 19 19 19 20 20 20 21 22 24 25 25 23 21 18 16 14 10 8 7 6 5
18 18 18 18 17 16 16 16 18 20 21 22 22 24 27 30 30 30 29 29 30 30 29 28 28 26 24 22 21 21 19 17 17 17 17 19 20 20 20 20 20 19 18 18 17 18 18 17 18 19 20 20 21 21 20 19 19 20 19 18 18 18 19 19 20 21 21 22 22 22 23 24 24 22 20 18 17 17 16 13 11 10 9 8 7
19 18 18 17 16 15 15 16 17 20 21 21 20 21 23 27 30 30 30 30 31 32 32 32 32 31 28 25 24 23 22 20 17 16 16 17 18 19 20 21 21 20 19 18 18 18 18 18 18 19 20 22 23 23 21 19 18 19 18 18 19 20 21 22 23 23 24 24 24 24 22 21 19 18 17 16 16 16 15 13 11 11 10 7 6
18 17 18 17 16 16 16 17 18 19 20 21 21 20 20 22 26 29 31 32 33 33 32 32 32 32 30 27 23 23 23 21 18 16 17 17 18 19 20 21 21 20 20 19 19 19 18 18 18 18 18 20 23 24 21 19 19 20 20 21 21 22 22 23 24 24 25 25 24 21 19 17 17 17 16 16 15 15 14 12 11 11 10 8 7
19 20 20 19 18 17 17 18 18 19 20 21 21 21 20 20 23 27 32 35 35 34 33 32 32 33 32 29 24 22 22 21 19 18 18 18 18 19 20 20 21 21 21 20 20 19 19 19 19 19 18 19 22 24 23 22 23 23 23 23 23 23 23 23 22 22 22 22 21 20 18 19 18 17 16 16 15 14 14 13 12 12 12 11 11
21 22 22 21 20 19 19 19 19 19 19 20 21 21 21 21 22 25 28 32 35 35 34 34 34 34 33 31 26 23 23 22 21 20 20 19 19 19 19 19 20 20 20 21 20 20 20 20 20 20 19 19 21 22 23 24 25 25 24 24 23 23 22 21 20 19 19 20 21 21 21 21 20 17 17 18 17 16 16 16 15 14 14 14 13
19 22 23 23 22 22 21 19 18 18 18 18 20 21 22 23 24 24 25 28 32 34 34 35 34 32 32 31 29 27 25 24 23 22 21 21 20 19 18 18 18 18 19 21 21 21 22 22 22 22 22 21 21 22 23 24 25 25 25 25 24 23 22 20 19 18 18 19 21 22 22 21 19 17 16 17 18 18 17 17 16 15 15 16 16
18 20 22 22 22 21 20 19 19 18 17 18 19 20 21 22 24 25 25 26 28 30 33 33 32 30 30 30 31 30 29 27 25 24 23 22 22 22 20 18 18 18 18 20 21 22 22 24 25 25 25 24 23 23 24 24 24 24 25 25 24 22 20 18 17 17 18 19 20 20 20 20 19 18 16 16 17 18 17 17 17 17 17 18 18
16 17 20 22 22 20 19 19 19 19 19 19 20 21 21 22 23 24 25 25 26 28 30 31 31 31 30 30 31 32 32 30 28 26 24 22 22 21 20 19 19 18 18 19 21 22 21 22 24 27 27 26 25 25 26 26 25 24 24 23 21 20 19 16 15 17 19 19 18 17 17 18 19 19 16 15 17 19 19 19 19 19 18 18 17
17 16 18 20 20 20 19 18 18 20 20 20 20 21 22 23 24 25 25 25 25 27 28 29 30 29 30 30 30 30 30 30 29 26 24 22 21 20 19 19 19 19 19 19 21 22 21 20 21 24 26 27 27 27 27 26 25 24 23 21 20 21 20 18 16 16 18 18 17 16 15 16 17 18 17 16 18 21 21 21 20 19 18 18 18
16 17 18 18 19 20 20 19 19 20 21 21 21 21 23 24 24 25 25 25 26 27 27 27 27 26 27 28 27 25 26 29 30 27 23 21 19 18 18 18 19 20 21 20 21 22 21 20 19 20 22 25 27 27 27 26 24 22 21 21 21 21 21 21 19 18 18 19 18 18 17 16 16 18 18 19 20 22 22 21 20 20 20 21 21
17 18 20 20 20 20 20 19 19 20 21 22 21 21 21 22 23 23 23 24 25 27 27 26 25 25 25 26 26 25 25 27 28 26 22 18 16 16 17 17 17 18 21 22 22 22 21 20 19 19 20 23 26 27 26 25 24 21 20 21 21 21 21 22 20 20 21 22 21 20 19 18 19 21 21 21 22 23 22 21 20 20 21 21 20
17 19 20 21 21 20 20 20 21 22 22 22 21 20 19 18 19 19 21 21 23 25 27 25 23 22 22 23 25 27 27 25 23 22 20 17 16 17 17 17 16 16 18 21 24 24 23 21 20 19 19 22 25 26 26 25 24 22 21 21 21 21 22 23 21 21 22 24 23 21 21 21 22 24 24 23 22 23 23 23 23 23 23 22 21
16 17 17 18 19 19 19 20 20 21 22 21 21 20 18 17 17 18 19 20 22 24 26 26 24 23 21 21 22 23 23 22 21 20 18 17 17 18 19 18 16 14 14 16 18 21 22 22 21 20 21 23 24 26 26 26 24 23 23 23 22 22 23 24 23 22 22 23 23 22 22 22 23 24 25 25 25 25 25 25 26 26 26 26 25
Wind_Direction
247 252 253 249 245 241 237 233 230 229 229 229 229 229 231 234 235 233 230 229 229 229 231 231 231 232 233 232 233 235 234 231 230 231 231 231 230 230 232 232 230 230 229 229 227 223 222 224 225 223 217 217 220 223 226 225 225 226 221 213 211 213 217 222 223 217 209 215 225 228 238 248 250 251 253 253 256 259 263 275 287 290 293 297 301
245 251 254 252 249 247 244 239 233 232 233 233 233 232 232 232 234 236 235 234 233 232 233 231 229 230 233 234 233 236 239 237 234 234 234 234 232 230 230 232 233 232 232 232 230 227 224 224 225 224 221 221 222 224 226 224 223 224 220 216 215 216 220 223 226 225 215 214 228 234 237 244 244 242 248 253 257 262 262 269 284 290 295 302 306
245 250 253 253 252 250 247 245 240 237 236 236 237 236 234 233 234 236 238 239 238 236 235 234 232 231 232 233 232 234 239 241 239 238 238 239 237 233 231 232 234 234 233 232 230 228 226 225 226 225 224 224 223 224 226 225 222 222 224 226 226 224 227 228 226 228 225 220 228 239 242 247 247 242 246 253 257 260 262 264 273 281 288 296 303
245 249 252 252 252 251 247 245 243 241 240 239 239 238 237 237 236 237 240 241 241 238 237 237 236 235 234 233 232 232 236 240 241 241 242 243 243 239 235 234 235 235 235 232 229 228 227 226 227 227 227 226 224 223 226 226 224 224 227 231 231 229 231 232 230 232 237 237 236 238 242 247 246 239 240 250 255 255 255 256 262 272 281 290 296
241 244 248 250 250 248 244 243 242 242 243 242 241 240 239 240 241 241 242 242 241 240 239 239 239 239 237 235 233 232 233 237 241 242 243 245 245 243 240 238 238 238 237 235 232 230 229 227 226 226 227 227 225 223 225 227 227 228 232 234 233 232 233 237 239 240 244 247 245 242 242 245 245 242 241 248 255 254 251 253 258 267 276 283 288
239 245 250 250 249 248 246 245 243 242 243 244 245 244 243 244 244 244 244 243 243 243 242 242 241 241 240 238 237 236 234 235 238 241 242 243 243 242 241 241 242 241 240 238 235 234 232 230 227 226 227 228 228 227 227 227 228 229 233 234 233 231 232 237 241 243 245 247 248 246 242 241 244 248 249 251 257 258 255 258 263 269 275 280 282
240 250 255 252 250 250 251 251 249 247 246 247 248 247 247 247 247 245 245 244 244 245 245 245 245 245 244 242 240 239 237 236 236 237 239 241 241 240 239 240 243 245 244 242 239 236 233 232 231 229 229 230 231 231 229 229 228 230 231 229 226 226 230 235 240 245 246 246 248 249 243 237 239 246 252 257 259 257 256 263 268 269 272 277 278
245 253 257 254 249 247 252 257 257 252 250 248 248 248 247 247 246 245 245 246 247 247 247 248 248 248 247 246 244 242 240 239 237 236 236 238 240 240 238 237 238 242 245 245 243 239 236 234 234 232 231 231 232 232 232 231 229 230 230 226 223 226 231 236 241 245 246 246 248 249 245 240 241 246 252 255 255 255 259 267 269 268 271 273 271
246 250 253 253 251 250 252 255 255 253 251 250 249 249 249 248 248 248 249 251 251 251 251 251 252 252 251 250 248 245 243 242 240 239 237 236 237 239 240 238 236 236 239 243 246 244 239 236 234 232 230 230 231 233 235 234 229 229 230 228 227 230 234 239 242 243 244 245 246 247 246 243 242 245 249 251 256 262 267 268 266 269 274 271 266
247 247 250 252 252 252 251 251 251 251 254 255 253 254 254 253 252 253 254 254 254 254 255 255 256 256 255 254 253 250 247 245 244 243 242 239 238 238 238 238 236 234 232 235 241 245 242 238 234 232 230 230 231 232 234 235 233 232 232 231 230 232 235 239 241 242 245 247 246 247 248 245 242 243 247 253 260 266 269 268 267 271 273 271 270
245 245 249 253 252 251 251 250 249 251 255 256 253 252 253 255 257 257 256 255 256 257 259 259 258 257 257 257 256 255 252 250 248 247 246 245 244 242 239 237 236 235 232 231 234 239 242 240 236 233 232 231 231 231 231 232 234 234 234 233 232 233 236 239 239 241 245 246 247 248 249 248 247 247 251 258 263 267 270 268 268 271 272 272 275
245 247 252 255 254 251 252 252 251 252 254 252 248 248 252 257 260 260 259 259 261 263 263 263 261 260 259 259 259 258 257 256 255 253 250 250 249 248 245 241 237 235 235 232 231 233 238 240 236 232 232 231 229 229 229 229 232 235 235 234 234 236 238 240 240 242 244 244 243 244 246 249 251 251 255 261 265 268 268 267 268 272 273 272 275
248 253 257 258 257 256 257 256 255 256 256 252 250 251 255 258 259 259 260 262 264 265 265 265 265 265 264 263 262 262 262 261 260 258 256 253 251 249 248 243 237 234 234 233 231 230 233 237 236 233 231 229 227 227 228 228 230 233 235 235 237 239 240 240 240 241 244 245 244 245 247 249 250 253 257 262 265 267 267 267 269 272 273 275 277
248 252 254 255 255 254 254 253 251 251 251 250 251 254 255 255 255 256 260 263 264 265 266 268 270 270 269 269 269 269 269 268 265 263 260 256 252 248 246 242 236 231 231 231 230 228 227 230 235 236 232 227 226 227 228 227 226 229 232 233 237 239 240 240 241 241 244 246 249 251 251 251 253 256 259 262 265 267 268 268 268 271 275 279 281
246 246 246 248 247 246 244 243 242 243 245 247 249 251 251 252 254 256 260 263 265 268 271 273 275 275 275 276 276 276 275 274 271 267 263 258 253 247 242 240 235 230 228 228 227 226 224 224 229 235 235 229 227 228 227 225 225 228 230 231 235 238 240 242 244 244 245 248 251 254 255 256 259 260 262 264 266 268 268 267 268 272 277 279 279
247 247 246 243 241 241 240 240 242 244 246 248 248 247 249 251 255 259 263 266 269 272 275 278 281 282 281 281 281 280 280 279 274 268 262 257 252 246 240 237 235 231 228 226 225 225 226 224 225 231 236 233 229 227 226 225 226 229 231 233 236 238 240 242 243 244 247 251 254 257 259 261 263 264 264 266 267 268 267 266 268 272 274 276 276
251 249 247 243 241 243 243 244 247 249 250 251 250 249 251 255 259 263 267 271 274 277 281 283 284 284 284 284 284 286 287 285 277 266 260 256 250 242 236 233 232 229 225 224 224 226 228 227 225 227 232 232 228 224 223 225 227 229 232 234 236 238 240 241 242 245 248 252 255 258 260 261 262 263 264 265 267 267 266 265 268 271 273 275 277
253 250 249 246 244 246 246 247 251 253 255 256 253 252 255 259 263 267 271 276 279 281 284 284 284 285 287 287 289 291 292 289 277 265 259 255 248 240 234 230 227 224 222 220 220 221 223 225 225 224 223 224 224 223 222 224 226 228 230 232 235 237 239 240 242 245 248 251 254 256 258 259 261 262 264 267 268 266 265 268 272 275 276 277 280
258 256 255 253 249 247 247 248 253 257 259 260 259 259 261 264 267 269 272 276 279 281 284 286 287 289 290 291 293 295 296 291 277 266 258 252 247 242 236 231 227 224 221 219 220 220 220 219 221 221 218 217 221 225 226 226 227 227 229 232 234 236 238 239 242 245 247 250 254 257 259 260 262 263 266 268 268 266 268 272 275 276 276 277 279
267 265 264 263 257 252 250 250 252 257 260 264 267 268 268 269 269 272 275 276 278 282 286 290 292 294 296 297 296 298 301 297 282 270 263 255 249 243 239 235 230 226 222 221 222 223 221 217 216 217 215 214 218 224 227 228 227 226 227 229 232 235 237 239 242 245 249 253 256 258 259 261 262 264 266 267 267 268 270 272 272 272 273 275 277
272 268 265 265 260 255 253 254 254 254 256 259 264 267 268 269 269 272 276 278 279 283 288 293 297 299 301 302 300 302 307 303 288 275 269 261 252 243 237 234 231 228 225 221 221 221 219 217 215 213 210 210 215 220 222 224 226 226 228 231 234 238 240 242 245 249 253 255 257 258 259 261 263 265 267 267 268 268 269 269 269 269 270 271 272
269 267 264 261 256 251 252 254 256 258 256 255 256 260 264 268 269 271 275 278 281 285 291 297 301 302 303 303 303 305 309 306 294 281 273 265 256 246 239 235 231 227 222 219 220 219 216 214 213 211 210 213 217 220 223 227 231 234 237 239 241 243 245 247 250 252 254 256 258 258 259 261 263 264 265 266 265 265 266 267 267 266 265 265 267
268 268 267 264 258 254 254 255 256 257 255 253 254 256 261 269 272 273 276 280 283 287 294 300 303 303 303 304 304 303 303 304 303 295 283 268 251 241 238 236 234 227 219 214 214 214 213 211 210 209 210 215 221 225 230 234 237 240 242 243 245 247 249 250 252 253 255 257 258 259 259 260 261 262 262 262 262 263 264 264 263 261 262 264 268
266 265 268 271 267 263 261 259 255 254 251 250 254 257 261 269 274 276 278 282 284 289 297 302 303 302 302 302 304 302 296 296 301 301 296 279 253 240 237 235 231 226 219 212 208 207 208 209 209 211 214 220 226 231 235 237 239 242 244 246 248 249 251 252 253 254 255 256 257 258 258 259 260 261 262 262 262 263 262 260 259 260 263 267 272
265 264 269 272 272 273 273 266 258 254 254 256 260 264 266 269 274 276 278 281 285 290 298 302 303 302 300 299 303 303 293 286 286 290 294 282 250 237 237 232 224 220 217 212 209 209 211 214 218 222 225 228 230 233 235 237 241 244 246 248 249 250 251 252 253 253 253 254 255 257 258 260 260 262 263 263 261 259 258 258 259 262 266 270 272
265 265 265 266 270 276 278 271 262 257 259 265 270 275 277 274 273 275 276 279 283 289 296 301 301 301 301 299 302 303 295 283 276 274 274 266 243 229 229 225 218 216 215 213 211 211 215 221 227 230 231 233 233 234 236 239 242 244 246 247 248 249 251 251 252 252 253 254 256 258 260 261 260 261 260 257 254 252 254 259 262 263 265 268 271
264 262 259 258 262 265 267 270 275 282 289 291 285 284 286 283 275 271 273 276 280 285 290 294 294 294 297 298 297 299 297 287 277 268 261 256 249 239 227 218 214 213 214 215 216 217 220 225 228 229 231 233 233 234 236 238 241 243 246 248 249 250 251 252 252 253 254 255 256 257 257 256 255 255 253 250 249 252 257 262 263 263 265 269 275
273 270 264 256 252 254 260 269 278 278 276 281 282 281 286 288 281 273 267 267 273 279 283 285 287 288 288 288 287 289 292 291 287 279 267 257 252 247 239 229 223 219 217 218 220 221 222 225 227 229 231 233 234 236 239 241 244 247 248 247 246 246 247 248 249 249 250 250 250 249 248 248 247 247 247 249 253 256 258 260 262 264 267 272 278
290 289 295 285 270 266 272 279 278 265 260 265 277 282 284 286 287 282 273 265 265 269 272 275 279 281 281 280 279 282 288 292 290 281 271 260 252 249 248 245 241 236 231 229 228 227 227 227 228 230 232 234 237 240 243 246 248 248 244 240 238 241 244 244 246 247 248 247 246 245 243 242 242 242 245 249 252 255 258 262 263 264 267 272 273
311 330 6 356 315 291 280 277 275 270 265 269 279 286 286 284 285 283 278 271 267 265 265 267 270 273 275 275 276 277 280 281 276 270 266 259 252 248 247 248 248 246 242 238 235 234 234 233 232 234 235 237 240 243 246 248 247 244 238 236 239 245 247 245 246 248 248 246 245 243 242 240 239 240 243 245 250 259 266 266 262 261 263 264 259
336 360 15 352 311 289 276 269 263 259 261 266 271 275 277 281 282 281 278 275 273 271 270 269 267 265 267 271 273 273 271 267 264 265 264 257 250 248 246 245 246 246 244 241 238 237 237 237 238 239 240 241 243 245 246 246 244 242 239 239 245 249 248 246 247 247 246 246 244 242 242 239 236 236 241 246 256 267 271 267 260 258 259 256 251
344 356 345 315 298 290 284 274 263 256 257 261 263 265 268 274 281 283 280 278 278 278 276 274 268 262 260 264 267 267 266 262 256 256 257 253 248 248 248 247 245 243 241 237 236 237 238 239 240 241 242 243 244 245 244 243 242 242 242 244 247 248 246 247 247 246 245 244 241 238 239 237 236 239 246 254 263 268 270 269 264 260 257 253 250
328 327 317 305 292 283 284 282 271 261 256 256 259 264 266 268 274 277 274 270 272 273 271 269 265 260 259 261 262 261 261 259 254 250 250 249 248 249 249 246 241 239 237 234 233 235 238 240 241 242 243 244 244 244 244 244 244 244 244 244 246 245 244 244 243 240 238 237 234 234 236 236 239 245 252 259 264 266 269 271 267 258 251 250 253
312 306 304 302 294 286 280 276 272 267 259 254 255 259 261 262 266 268 265 260 260 262 259 254 254 258 261 263 262 259 256 254 252 250 249 248 247 247 247 244 240 239 240 239 238 239 240 242 244 244 244 245 245 244 244 243 243 242 241 241 240 239 236 233 232 231 230 229 230 233 235 238 243 249 255 260 265 268 272 273 266 252 246 251 259
304 297 293 293 293 289 277 267 265 264 260 256 255 257 259 260 260 261 262 262 259 258 254 248 248 256 261 262 263 260 254 250 248 246 247 248 247 243 240 239 239 241 243 244 243 243 242 243 244 245 246 245 241 238 236 235 235 235 236 235 234 230 226 224 227 230 231 232 234 236 239 244 249 254 258 263 268 272 275 273 263 252 249 255 263
298 292 284 280 283 286 281 272 265 262 260 258 257 257 258 258 256 257 260 262 260 256 253 250 251 255 255 253 256 257 253 248 245 243 244 246 245 242 239 238 239 243 246 247 247 246 244 243 243 244 244 242 237 232 229 229 230 231 232 231 229 227 226 227 231 234 235 237 239 241 246 251 253 257 263 267 271 275 274 265 254 248 246 250 257
293 285 275 270 273 282 287 285 278 271 267 264 261 258 257 256 256 257 260 261 259 256 253 251 253 256 254 251 251 251 250 247 245 243 242 242 242 241 240 240 241 243 245 247 247 245 244 242 241 241 241 238 233 228 228 229 229 228 228 229 229 229 230 233 236 239 240 241 242 245 249 252 255 260 265 266 269 270 261 244 231 220 203 190 191
287 279 270 266 269 275 282 287 288 286 281 276 271 265 260 257 256 257 259 261 261 259 255 253 254 255 255 253 251 248 245 244 244 244 243 242 242 242 241 241 241 242 244 245 244 242 241 239 239 239 237 232 228 228 229 231 230 229 229 231 231 232 234 236 239 242 243 243 243 246 249 254 258 262 261 259 258 250 234 217 201 180 175 174 165
284 278 271 266 267 271 278 286 290 291 291 289 284 276 268 263 259 258 259 262 262 261 258 256 255 255 255 255 254 249 243 243 248 250 248 246 245 245 245 243 242 242 242 244 244 243 243 242 240 239 236 231 228 229 233 234 235 235 235 236 236 237 237 238 240 243 243 243 245 248 253 258 260 256 249 243 237 225 209 195 181 175 178 175 169
282 280 272 266 265 270 278 286 289 290 293 295 294 286 277 269 263 261 262 263 264 264 262 258 257 256 257 257 255 248 245 249 256 256 252 249 247 246 245 245 245 245 245 245 245 246 247 246 243 241 237 231 228 229 233 236 240 241 240 239 239 239 241 243 245 247 247 248 250 254 256 255 249 239 228 222 215 204 192 182 177 179 183 184 190
276 276 271 267 268 271 274 277 281 286 291 294 292 288 282 274 266 261 259 259 260 263 265 265 264 262 261 261 257 249 247 252 258 257 253 249 247 245 245 245 246 247 247 247 247 247 248 247 244 240 234 228 226 226 227 230 235 238 238 238 241 243 246 249 250 249 250 251 251 250 246 237 227 219 211 202 195 190 188 187 188 191 196 204 218
266 269 268 267 268 270 271 273 278 284 288 289 289 289 288 282 272 263 258 257 257 260 265 270 272 270 268 266 261 252 248 249 253 254 252 248 244 243 242 242 244 245 246 246 247 247 247 247 244 240 233 226 224 226 227 228 231 235 237 240 243 246 247 249 249 250 250 248 243 238 231 222 214 209 202 193 190 194 199 203 207 211 215 222 233
261 265 267 266 268 270 273 276 280 283 285 285 286 287 288 286 280 272 266 263 261 261 263 266 267 267 269 268 264 255 250 249 251 253 252 249 245 243 242 243 245 247 247 246 245 243 244 243 242 240 236 228 224 227 231 232 234 237 239 240 243 244 244 245 245 246 246 241 233 227 221 213 207 204 198 194 195 202 208 212 217 222 224 230 238
257 262 266 267 268 270 274 277 280 282 283 283 283 283 283 283 281 278 274 269 265 263 263 265 264 263 265 267 265 259 252 250 251 254 253 250 248 245 244 245 246 247 248 247 244 241 241 239 237 237 238 233 227 226 230 233 235 237 238 237 238 239 240 242 243 244 242 235 225 217 211 205 204 205 204 203 205 209 212 214 217 221 226 233 238
257 258 262 265 266 266 270 275 279 281 282 282 280 279 280 280 280 279 277 273 268 264 263 263 262 259 257 260 263 262 257 254 255 257 256 254 253 251 249 247 246 246 248 249 245 242 240 238 235 233 234 234 230 226 226 228 231 232 234 234 234 236 241 247 247 239 231 224 217 212 209 207 208 211 213 213 214 216 216 216 217 222 229 237 239
265 261 261 262 263 263 266 273 277 278 280 281 281 281 281 281 280 278 274 271 268 265 262 261 259 255 251 250 256 260 259 259 259 257 254 253 253 251 250 250 249 249 249 248 243 239 237 237 235 232 231 230 228 225 224 225 226 229 233 235 238 243 246 243 234 224 219 215 213 214 216 217 217 217 219 221 220 219 218 217 218 222 230 238 240
266 263 259 257 257 259 264 270 274 276 278 281 283 283 284 284 281 277 271 266 263 261 259 256 254 249 243 239 243 251 256 258 257 255 254 254 254 251 250 252 251 250 249 245 239 235 233 235 236 235 232 228 225 223 223 225 227 231 236 240 244 247 241 226 214 213 216 218 218 220 224 226 224 222 225 228 224 220 217 217 218 223 229 237 240
259 258 255 254 256 260 263 266 268 272 277 282 284 284 286 287 285 278 271 265 261 259 257 254 250 246 239 235 238 248 256 256 253 252 254 258 259 255 254 256 255 251 248 242 236 234 233 234 237 239 235 229 223 222 223 226 229 234 240 243 244 243 232 218 212 215 218 219 221 223 226 227 224 222 225 227 223 219 218 219 222 228 235 240 241
250 253 258 261 264 265 265 266 268 273 278 282 284 287 289 291 290 285 278 272 267 264 262 258 254 252 250 248 248 253 255 252 249 249 252 257 260 259 260 261 261 259 254 249 244 242 240 239 241 243 241 234 227 224 226 228 231 235 239 238 235 229 220 215 217 221 221 220 221 222 223 224 221 219 221 224 223 220 220 222 224 229 235 238 237
250 254 260 265 267 268 269 270 272 274 276 278 282 288 293 294 294 290 286 281 274 268 266 265 263 263 266 269 266 260 252 245 244 246 249 254 259 262 262 260 262 266 265 258 252 248 246 246 247 249 248 242 235 232 231 231 231 232 234 233 228 223 218 218 222 225 223 222 222 222 224 226 224 222 223 227 227 225 223 223 227 231 233 234 236
251 255 262 267 268 269 270 271 271 271 271 273 277 283 286 287 286 282 278 276 273 267 264 266 267 267 270 276 276 268 260 253 248 246 247 254 261 263 261 258 258 264 271 268 259 251 248 249 252 254 253 247 240 236 233 231 229 231 234 232 227 223 222 223 227 228 225 222 223 226 229 231 231 230 229 230 232 232 230 230 232 235 237 238 241